Year,Month,Day,Hour,Minute,Value (Times are PST for temperature in C)
2005,06,25,00,00,13.80
2005,06,25,00,01,13.80
2005,06,25,00,02,13.80
2005,06,25,00,03,13.80
2005,06,25,00,04,13.80
2005,06,25,00,05,13.90
2005,06,25,00,06,13.90
2005,06,25,00,07,13.90
2005,06,25,00,08,13.90
2005,06,25,00,09,13.90
2005,06,25,00,10,13.90
2005,06,25,00,11,13.90
2005,06,25,00,12,13.90
2005,06,25,00,13,13.90
2005,06,25,00,14,13.90
2005,06,25,00,15,13.90
2005,06,25,00,16,13.90
2005,06,25,00,17,13.90
2005,06,25,00,18,14.00
2005,06,25,00,19,14.00
2005,06,25,00,20,14.00
2005,06,25,00,21,14.00
2005,06,25,00,22,14.00
2005,06,25,00,23,14.00
2005,06,25,00,24,13.90
2005,06,25,00,25,13.90
2005,06,25,00,26,13.90
2005,06,25,00,27,13.90
2005,06,25,00,28,13.90
2005,06,25,00,29,13.90
2005,06,25,00,30,13.90
2005,06,25,00,31,13.90
2005,06,25,00,32,13.90
2005,06,25,00,33,13.90
2005,06,25,00,34,13.90
2005,06,25,00,35,13.80
2005,06,25,00,36,13.80
2005,06,25,00,37,13.80
2005,06,25,00,38,13.80
2005,06,25,00,39,13.80
2005,06,25,00,40,13.80
2005,06,25,00,41,13.90
2005,06,25,00,42,13.90
2005,06,25,00,43,13.90
2005,06,25,00,44,13.90
2005,06,25,00,45,13.90
2005,06,25,00,46,13.90
2005,06,25,00,47,13.90
2005,06,25,00,48,13.90
2005,06,25,00,49,13.90
2005,06,25,00,50,13.90
2005,06,25,00,51,13.90
2005,06,25,00,52,13.90
2005,06,25,00,53,13.90
2005,06,25,00,54,14.00
2005,06,25,00,55,14.00
2005,06,25,00,56,14.00
2005,06,25,00,57,14.00
2005,06,25,00,58,14.00
2005,06,25,00,59,14.10
2005,06,25,01,00,14.10
2005,06,25,01,01,14.10
2005,06,25,01,02,14.10
2005,06,25,01,03,14.10
2005,06,25,01,04,14.10
2005,06,25,01,05,14.10
2005,06,25,01,06,14.10
2005,06,25,01,07,14.10
2005,06,25,01,08,14.10
2005,06,25,01,09,14.10
2005,06,25,01,10,14.10
2005,06,25,01,11,14.10
2005,06,25,01,12,14.10
2005,06,25,01,13,14.00
2005,06,25,01,14,14.00
2005,06,25,01,15,14.00
2005,06,25,01,16,14.00
2005,06,25,01,17,14.00
2005,06,25,01,18,13.90
2005,06,25,01,19,13.90
2005,06,25,01,20,13.90
2005,06,25,01,21,13.90
2005,06,25,01,22,13.90
2005,06,25,01,23,13.90
2005,06,25,01,24,13.90
2005,06,25,01,25,13.90
2005,06,25,01,26,13.90
2005,06,25,01,27,13.90
2005,06,25,01,28,13.90
2005,06,25,01,29,13.90
2005,06,25,01,30,13.90
2005,06,25,01,31,13.90
2005,06,25,01,32,13.90
2005,06,25,01,33,13.90
2005,06,25,01,34,13.80
2005,06,25,01,35,13.80
2005,06,25,01,36,13.80
2005,06,25,01,37,13.80
2005,06,25,01,38,13.80
2005,06,25,01,39,13.80
2005,06,25,01,40,13.80
2005,06,25,01,41,13.80
2005,06,25,01,42,13.80
2005,06,25,01,43,13.80
2005,06,25,01,44,13.80
2005,06,25,01,45,13.80
2005,06,25,01,46,13.80
2005,06,25,01,47,13.80
2005,06,25,01,48,13.80
2005,06,25,01,49,13.80
2005,06,25,01,50,13.80
2005,06,25,01,51,13.80
2005,06,25,01,52,13.80
2005,06,25,01,53,13.80
2005,06,25,01,54,13.80
2005,06,25,01,55,13.80
2005,06,25,01,56,13.80
2005,06,25,01,57,13.80
2005,06,25,01,58,13.90
2005,06,25,01,59,13.90
2005,06,25,02,00,13.90
2005,06,25,02,01,13.90
2005,06,25,02,02,13.90
2005,06,25,02,03,13.90
2005,06,25,02,04,13.90
2005,06,25,02,05,13.90
2005,06,25,02,06,13.90
2005,06,25,02,07,13.90
2005,06,25,02,08,13.90
2005,06,25,02,09,13.90
2005,06,25,02,10,13.90
2005,06,25,02,11,13.90
2005,06,25,02,12,13.90
2005,06,25,02,13,13.90
2005,06,25,02,14,13.90
2005,06,25,02,15,13.90
2005,06,25,02,16,13.90
2005,06,25,02,17,13.90
2005,06,25,02,18,13.90
2005,06,25,02,19,13.90
2005,06,25,02,20,13.90
2005,06,25,02,21,13.90
2005,06,25,02,22,13.90
2005,06,25,02,23,13.90
2005,06,25,02,24,13.90
2005,06,25,02,25,13.90
2005,06,25,02,26,13.90
2005,06,25,02,27,13.90
2005,06,25,02,28,13.90
2005,06,25,02,29,13.90
2005,06,25,02,30,13.90
2005,06,25,02,31,13.90
2005,06,25,02,32,13.90
2005,06,25,02,33,13.90
2005,06,25,02,34,13.90
2005,06,25,02,35,13.90
2005,06,25,02,36,13.90
2005,06,25,02,37,13.90
2005,06,25,02,38,13.90
2005,06,25,02,39,13.90
2005,06,25,02,40,13.90
2005,06,25,02,41,13.80
2005,06,25,02,42,13.80
2005,06,25,02,43,13.80
2005,06,25,02,44,13.80
2005,06,25,02,45,13.80
2005,06,25,02,46,13.80
2005,06,25,02,47,13.80
2005,06,25,02,48,13.80
2005,06,25,02,49,13.70
2005,06,25,02,50,13.70
2005,06,25,02,51,13.70
2005,06,25,02,52,13.70
2005,06,25,02,53,13.70
2005,06,25,02,54,13.80
2005,06,25,02,55,13.80
2005,06,25,02,56,13.80
2005,06,25,02,57,13.80
2005,06,25,02,58,13.80
2005,06,25,02,59,13.80
2005,06,25,03,00,13.80
2005,06,25,03,01,13.80
2005,06,25,03,02,13.90
2005,06,25,03,03,13.90
2005,06,25,03,04,13.90
2005,06,25,03,05,13.90
2005,06,25,03,06,13.90
2005,06,25,03,07,13.90
2005,06,25,03,08,14.00
2005,06,25,03,09,14.00
2005,06,25,03,10,14.00
2005,06,25,03,11,14.00
2005,06,25,03,12,14.00
2005,06,25,03,13,14.00
2005,06,25,03,14,14.10
2005,06,25,03,15,14.10
2005,06,25,03,16,14.10
2005,06,25,03,17,14.10
2005,06,25,03,18,14.10
2005,06,25,03,19,14.10
2005,06,25,03,20,14.10
2005,06,25,03,21,14.10
2005,06,25,03,22,14.10
2005,06,25,03,23,14.10
2005,06,25,03,24,14.10
2005,06,25,03,25,14.20
2005,06,25,03,26,14.20
2005,06,25,03,27,14.20
2005,06,25,03,28,14.20
2005,06,25,03,29,14.20
2005,06,25,03,30,14.20
2005,06,25,03,31,14.20
2005,06,25,03,32,14.20
2005,06,25,03,33,14.20
2005,06,25,03,34,14.20
2005,06,25,03,35,14.20
2005,06,25,03,36,14.20
2005,06,25,03,37,14.20
2005,06,25,03,38,14.20
2005,06,25,03,39,14.20
2005,06,25,03,40,14.20
2005,06,25,03,41,14.20
2005,06,25,03,42,14.20
2005,06,25,03,43,14.20
2005,06,25,03,44,14.20
2005,06,25,03,45,14.20
2005,06,25,03,46,14.20
2005,06,25,03,47,14.20
2005,06,25,03,48,14.20
2005,06,25,03,49,14.20
2005,06,25,03,50,14.20
2005,06,25,03,51,14.20
2005,06,25,03,52,14.20
2005,06,25,03,53,14.20
2005,06,25,03,54,14.20
2005,06,25,03,55,14.20
2005,06,25,03,56,14.20
2005,06,25,03,57,14.20
2005,06,25,03,58,14.20
2005,06,25,03,59,14.20
2005,06,25,04,00,14.20
2005,06,25,04,01,14.20
2005,06,25,04,02,14.20
2005,06,25,04,03,14.30
2005,06,25,04,04,14.30
2005,06,25,04,05,14.30
2005,06,25,04,06,14.30
2005,06,25,04,07,14.30
2005,06,25,04,08,14.30
2005,06,25,04,09,14.30
2005,06,25,04,10,14.40
2005,06,25,04,11,14.40
2005,06,25,04,12,14.40
2005,06,25,04,13,14.40
2005,06,25,04,14,14.40
2005,06,25,04,15,14.40
2005,06,25,04,16,14.40
2005,06,25,04,17,14.40
2005,06,25,04,18,14.40
2005,06,25,04,19,14.40
2005,06,25,04,20,14.40
2005,06,25,04,21,14.40
2005,06,25,04,22,14.40
2005,06,25,04,23,14.50
2005,06,25,04,24,14.50
2005,06,25,04,25,14.50
2005,06,25,04,26,14.50
2005,06,25,04,27,14.50
2005,06,25,04,28,14.50
2005,06,25,04,29,14.50
2005,06,25,04,30,14.50
2005,06,25,04,31,14.50
2005,06,25,04,32,14.50
2005,06,25,04,33,14.50
2005,06,25,04,34,14.50
2005,06,25,04,35,14.40
2005,06,25,04,36,14.40
2005,06,25,04,37,14.40
2005,06,25,04,38,14.40
2005,06,25,04,39,14.40
2005,06,25,04,40,14.40
2005,06,25,04,41,14.40
2005,06,25,04,42,14.40
2005,06,25,04,43,14.40
2005,06,25,04,44,14.40
2005,06,25,04,45,14.40
2005,06,25,04,46,14.40
2005,06,25,04,47,14.40
2005,06,25,04,48,14.40
2005,06,25,04,49,14.40
2005,06,25,04,50,14.40
2005,06,25,04,51,14.40
2005,06,25,04,52,14.30
2005,06,25,04,53,14.30
2005,06,25,04,54,14.30
2005,06,25,04,55,14.30
2005,06,25,04,56,14.30
2005,06,25,04,57,14.30
2005,06,25,04,58,14.30
2005,06,25,04,59,14.30
2005,06,25,05,00,14.30
2005,06,25,05,01,14.30
2005,06,25,05,02,14.30
2005,06,25,05,03,14.30
2005,06,25,05,04,14.30
2005,06,25,05,05,14.30
2005,06,25,05,06,14.40
2005,06,25,05,07,14.40
2005,06,25,05,08,14.40
2005,06,25,05,09,14.40
2005,06,25,05,10,14.40
2005,06,25,05,11,14.40
2005,06,25,05,12,14.40
2005,06,25,05,13,14.40
2005,06,25,05,14,14.40
2005,06,25,05,15,14.40
2005,06,25,05,16,14.40
2005,06,25,05,17,14.40
2005,06,25,05,18,14.40
2005,06,25,05,19,14.40
2005,06,25,05,20,14.40
2005,06,25,05,21,14.40
2005,06,25,05,22,14.40
2005,06,25,05,23,14.40
2005,06,25,05,24,14.40
2005,06,25,05,25,14.40
2005,06,25,05,26,14.40
2005,06,25,05,27,14.40
2005,06,25,05,28,14.40
2005,06,25,05,29,14.40
2005,06,25,05,30,14.40
2005,06,25,05,31,14.40
2005,06,25,05,32,14.40
2005,06,25,05,33,14.40
2005,06,25,05,34,14.40
2005,06,25,05,35,14.40
2005,06,25,05,36,14.40
2005,06,25,05,37,14.40
2005,06,25,05,38,14.40
2005,06,25,05,39,14.40
2005,06,25,05,40,14.40
2005,06,25,05,41,14.40
2005,06,25,05,42,14.40
2005,06,25,05,43,14.40
2005,06,25,05,44,14.40
2005,06,25,05,45,14.40
2005,06,25,05,46,14.40
2005,06,25,05,47,14.40
2005,06,25,05,48,14.40
2005,06,25,05,49,14.40
2005,06,25,05,50,14.40
2005,06,25,05,51,14.50
2005,06,25,05,52,14.50
2005,06,25,05,53,14.50
2005,06,25,05,54,14.50
2005,06,25,05,55,14.50
2005,06,25,05,56,14.50
2005,06,25,05,57,14.50
2005,06,25,05,58,14.50
2005,06,25,05,59,14.60
2005,06,25,06,00,14.60
2005,06,25,06,01,14.60
2005,06,25,06,02,14.60
2005,06,25,06,03,14.60
2005,06,25,06,04,14.60
2005,06,25,06,05,14.60
2005,06,25,06,06,14.60
2005,06,25,06,07,14.60
2005,06,25,06,08,14.60
2005,06,25,06,09,14.60
2005,06,25,06,10,14.50
2005,06,25,06,11,14.50
2005,06,25,06,12,14.50
2005,06,25,06,13,14.40
2005,06,25,06,14,14.40
2005,06,25,06,15,14.40
2005,06,25,06,16,14.40
2005,06,25,06,17,14.30
2005,06,25,06,18,14.30
2005,06,25,06,19,14.30
2005,06,25,06,20,14.30
2005,06,25,06,21,14.30
2005,06,25,06,22,14.20
2005,06,25,06,23,14.20
2005,06,25,06,24,14.20
2005,06,25,06,25,14.20
2005,06,25,06,26,14.20
2005,06,25,06,27,14.20
2005,06,25,06,28,14.20
2005,06,25,06,29,14.20
2005,06,25,06,30,14.20
2005,06,25,06,31,14.20
2005,06,25,06,32,14.20
2005,06,25,06,33,14.20
2005,06,25,06,34,14.20
2005,06,25,06,35,14.20
2005,06,25,06,36,14.20
2005,06,25,06,37,14.20
2005,06,25,06,38,14.20
2005,06,25,06,39,14.20
2005,06,25,06,40,14.20
2005,06,25,06,41,14.20
2005,06,25,06,42,14.20
2005,06,25,06,43,14.20
2005,06,25,06,44,14.20
2005,06,25,06,45,14.30
2005,06,25,06,46,14.30
2005,06,25,06,47,14.30
2005,06,25,06,48,14.30
2005,06,25,06,49,14.30
2005,06,25,06,50,14.30
2005,06,25,06,51,14.30
2005,06,25,06,52,14.40
2005,06,25,06,53,14.40
2005,06,25,06,54,14.40
2005,06,25,06,55,14.40
2005,06,25,06,56,14.40
2005,06,25,06,57,14.50
2005,06,25,06,58,14.50
2005,06,25,06,59,14.50
2005,06,25,07,00,14.50
2005,06,25,07,01,14.50
2005,06,25,07,02,14.50
2005,06,25,07,03,14.60
2005,06,25,07,04,14.60
2005,06,25,07,05,14.60
2005,06,25,07,06,14.60
2005,06,25,07,07,14.60
2005,06,25,07,08,14.70
2005,06,25,07,09,14.70
2005,06,25,07,10,14.70
2005,06,25,07,11,14.70
2005,06,25,07,12,14.70
2005,06,25,07,13,14.80
2005,06,25,07,14,14.80
2005,06,25,07,15,14.80
2005,06,25,07,16,14.80
2005,06,25,07,17,14.80
2005,06,25,07,18,14.80
2005,06,25,07,19,14.80
2005,06,25,07,20,14.80
2005,06,25,07,21,14.80
2005,06,25,07,22,14.80
2005,06,25,07,23,14.80
2005,06,25,07,24,14.80
2005,06,25,07,25,14.80
2005,06,25,07,26,14.80
2005,06,25,07,27,14.80
2005,06,25,07,28,14.80
2005,06,25,07,29,14.80
2005,06,25,07,30,14.80
2005,06,25,07,31,14.80
2005,06,25,07,32,14.90
2005,06,25,07,33,14.90
2005,06,25,07,34,14.90
2005,06,25,07,35,14.90
2005,06,25,07,36,14.90
2005,06,25,07,37,14.90
2005,06,25,07,38,14.90
2005,06,25,07,39,14.90
2005,06,25,07,40,14.90
2005,06,25,07,41,15.00
2005,06,25,07,42,15.00
2005,06,25,07,43,15.00
2005,06,25,07,44,15.00
2005,06,25,07,45,14.90
2005,06,25,07,46,14.90
2005,06,25,07,47,14.80
2005,06,25,07,48,14.80
2005,06,25,07,49,14.70
2005,06,25,07,50,14.70
2005,06,25,07,51,14.60
2005,06,25,07,52,14.60
2005,06,25,07,53,14.60
2005,06,25,07,54,14.60
2005,06,25,07,55,14.50
2005,06,25,07,56,14.50
2005,06,25,07,57,14.50
2005,06,25,07,58,14.50
2005,06,25,07,59,14.50
2005,06,25,08,00,14.50
2005,06,25,08,01,14.50
2005,06,25,08,02,14.50
2005,06,25,08,03,14.50
2005,06,25,08,04,14.50
2005,06,25,08,05,14.50
2005,06,25,08,06,14.50
2005,06,25,08,07,14.60
2005,06,25,08,08,14.60
2005,06,25,08,09,14.60
2005,06,25,08,10,14.60
2005,06,25,08,11,14.60
2005,06,25,08,12,14.70
2005,06,25,08,13,14.70
2005,06,25,08,14,14.70
2005,06,25,08,15,14.70
2005,06,25,08,16,14.70
2005,06,25,08,17,14.70
2005,06,25,08,18,14.70
2005,06,25,08,19,14.70
2005,06,25,08,20,14.70
2005,06,25,08,21,14.80
2005,06,25,08,22,14.80
2005,06,25,08,23,14.80
2005,06,25,08,24,14.80
2005,06,25,08,25,14.80
2005,06,25,08,26,14.80
2005,06,25,08,27,14.80
2005,06,25,08,28,14.80
2005,06,25,08,29,14.80
2005,06,25,08,30,14.90
2005,06,25,08,31,15.00
2005,06,25,08,32,15.00
2005,06,25,08,33,15.00
2005,06,25,08,34,15.10
2005,06,25,08,35,15.10
2005,06,25,08,36,15.10
2005,06,25,08,37,15.20
2005,06,25,08,38,15.20
2005,06,25,08,39,15.30
2005,06,25,08,40,15.30
2005,06,25,08,41,15.30
2005,06,25,08,42,15.30
2005,06,25,08,43,15.30
2005,06,25,08,44,15.30
2005,06,25,08,45,15.30
2005,06,25,08,46,15.30
2005,06,25,08,47,15.30
2005,06,25,08,48,15.40
2005,06,25,08,49,15.40
2005,06,25,08,50,15.40
2005,06,25,08,51,15.50
2005,06,25,08,52,15.50
2005,06,25,08,53,15.60
2005,06,25,08,54,15.60
2005,06,25,08,55,15.70
2005,06,25,08,56,15.60
2005,06,25,08,57,15.60
2005,06,25,08,58,15.60
2005,06,25,08,59,15.60
2005,06,25,09,00,15.50
2005,06,25,09,01,15.50
2005,06,25,09,02,15.50
2005,06,25,09,03,15.50
2005,06,25,09,04,15.40
2005,06,25,09,05,15.40
2005,06,25,09,06,15.50
2005,06,25,09,07,15.50
2005,06,25,09,08,15.50
2005,06,25,09,09,15.60
2005,06,25,09,10,15.60
2005,06,25,09,11,15.70
2005,06,25,09,12,15.80
2005,06,25,09,13,15.80
2005,06,25,09,14,15.80
2005,06,25,09,15,15.80
2005,06,25,09,16,15.80
2005,06,25,09,17,15.80
2005,06,25,09,18,15.80
2005,06,25,09,19,15.80
2005,06,25,09,20,15.80
2005,06,25,09,21,15.80
2005,06,25,09,22,15.80
2005,06,25,09,23,15.80
2005,06,25,09,24,15.90
2005,06,25,09,25,15.90
2005,06,25,09,26,15.90
2005,06,25,09,27,15.90
2005,06,25,09,28,16.00
2005,06,25,09,29,16.10
2005,06,25,09,30,16.10
2005,06,25,09,31,16.10
2005,06,25,09,32,16.10
2005,06,25,09,33,16.20
2005,06,25,09,34,16.20
2005,06,25,09,35,16.30
2005,06,25,09,36,16.40
2005,06,25,09,37,16.40
2005,06,25,09,38,16.40
2005,06,25,09,39,16.40
2005,06,25,09,40,16.40
2005,06,25,09,41,16.40
2005,06,25,09,42,16.40
2005,06,25,09,43,16.40
2005,06,25,09,44,16.50
2005,06,25,09,45,16.60
2005,06,25,09,46,16.60
2005,06,25,09,47,16.60
2005,06,25,09,48,16.70
2005,06,25,09,49,16.70
2005,06,25,09,50,16.70
2005,06,25,09,51,16.70
2005,06,25,09,52,16.70
2005,06,25,09,53,16.70
2005,06,25,09,54,16.70
2005,06,25,09,55,16.80
2005,06,25,09,56,16.90
2005,06,25,09,57,16.90
2005,06,25,09,58,16.90
2005,06,25,09,59,17.00
2005,06,25,10,00,17.10
2005,06,25,10,01,17.10
2005,06,25,10,02,17.20
2005,06,25,10,03,17.30
2005,06,25,10,04,17.30
2005,06,25,10,05,17.40
2005,06,25,10,06,17.40
2005,06,25,10,07,17.50
2005,06,25,10,08,17.60
2005,06,25,10,09,17.60
2005,06,25,10,10,17.60
2005,06,25,10,11,17.50
2005,06,25,10,12,17.40
2005,06,25,10,13,17.40
2005,06,25,10,14,17.30
2005,06,25,10,15,17.30
2005,06,25,10,16,17.30
2005,06,25,10,17,17.30
2005,06,25,10,18,17.20
2005,06,25,10,19,17.20
2005,06,25,10,20,17.20
2005,06,25,10,21,17.30
2005,06,25,10,22,17.40
2005,06,25,10,23,17.40
2005,06,25,10,24,17.40
2005,06,25,10,25,17.50
2005,06,25,10,26,17.60
2005,06,25,10,27,17.80
2005,06,25,10,28,17.90
2005,06,25,10,29,17.90
2005,06,25,10,30,18.10
2005,06,25,10,31,18.20
2005,06,25,10,32,18.30
2005,06,25,10,33,18.40
2005,06,25,10,34,18.40
2005,06,25,10,35,18.50
2005,06,25,10,36,18.50
2005,06,25,10,37,18.50
2005,06,25,10,38,18.50
2005,06,25,10,39,18.60
2005,06,25,10,40,18.60
2005,06,25,10,41,18.70
2005,06,25,10,42,18.60
2005,06,25,10,43,18.70
2005,06,25,10,44,18.60
2005,06,25,10,45,18.50
2005,06,25,10,46,18.30
2005,06,25,10,47,18.30
2005,06,25,10,48,18.20
2005,06,25,10,49,18.20
2005,06,25,10,50,18.20
2005,06,25,10,51,18.20
2005,06,25,10,52,18.20
2005,06,25,10,53,18.20
2005,06,25,10,54,18.30
2005,06,25,10,55,18.50
2005,06,25,10,56,18.50
2005,06,25,10,57,18.50
2005,06,25,10,58,18.50
2005,06,25,10,59,18.50
2005,06,25,11,00,18.50
2005,06,25,11,01,18.50
2005,06,25,11,02,18.60
2005,06,25,11,03,18.70
2005,06,25,11,04,18.80
2005,06,25,11,05,18.80
2005,06,25,11,06,18.80
2005,06,25,11,07,18.80
2005,06,25,11,08,18.70
2005,06,25,11,09,18.60
2005,06,25,11,10,18.50
2005,06,25,11,11,18.30
2005,06,25,11,12,18.30
2005,06,25,11,13,18.20
2005,06,25,11,14,18.20
2005,06,25,11,15,18.30
2005,06,25,11,16,18.40
2005,06,25,11,17,18.50
2005,06,25,11,18,18.60
2005,06,25,11,19,18.60
2005,06,25,11,20,18.60
2005,06,25,11,21,18.70
2005,06,25,11,22,18.80
2005,06,25,11,23,18.80
2005,06,25,11,24,18.70
2005,06,25,11,25,18.70
2005,06,25,11,26,18.70
2005,06,25,11,27,18.80
2005,06,25,11,28,19.00
2005,06,25,11,29,19.10
2005,06,25,11,30,19.20
2005,06,25,11,31,19.10
2005,06,25,11,32,19.10
2005,06,25,11,33,19.10
2005,06,25,11,34,19.10
2005,06,25,11,35,19.10
2005,06,25,11,36,19.10
2005,06,25,11,37,19.10
2005,06,25,11,38,19.10
2005,06,25,11,39,19.10
2005,06,25,11,40,19.10
2005,06,25,11,41,19.10
2005,06,25,11,42,19.00
2005,06,25,11,43,18.90
2005,06,25,11,44,19.00
2005,06,25,11,45,19.10
2005,06,25,11,46,19.10
2005,06,25,11,47,19.10
2005,06,25,11,48,19.10
2005,06,25,11,49,19.00
2005,06,25,11,50,18.90
2005,06,25,11,51,19.00
2005,06,25,11,52,19.00
2005,06,25,11,53,18.90
2005,06,25,11,54,18.90
2005,06,25,11,55,18.90
2005,06,25,11,56,18.80
2005,06,25,11,57,18.80
2005,06,25,11,58,18.80
2005,06,25,11,59,18.80
2005,06,25,12,00,18.80
2005,06,25,12,01,18.70
2005,06,25,12,02,18.70
2005,06,25,12,03,18.70
2005,06,25,12,04,18.80
2005,06,25,12,05,18.80
2005,06,25,12,06,18.80
2005,06,25,12,07,18.90
2005,06,25,12,08,19.00
2005,06,25,12,09,19.10
2005,06,25,12,10,19.10
2005,06,25,12,11,19.20
2005,06,25,12,12,19.30
2005,06,25,12,13,19.20
2005,06,25,12,14,19.10
2005,06,25,12,15,19.10
2005,06,25,12,16,19.20
2005,06,25,12,17,19.20
2005,06,25,12,18,19.30
2005,06,25,12,19,19.30
2005,06,25,12,20,19.40
2005,06,25,12,21,19.50
2005,06,25,12,22,19.60
2005,06,25,12,23,19.60
2005,06,25,12,24,19.70
2005,06,25,12,25,19.80
2005,06,25,12,26,19.70
2005,06,25,12,27,19.60
2005,06,25,12,28,19.40
2005,06,25,12,29,19.10
2005,06,25,12,30,19.10
2005,06,25,12,31,19.10
2005,06,25,12,32,19.10
2005,06,25,12,33,19.20
2005,06,25,12,34,19.30
2005,06,25,12,35,19.40
2005,06,25,12,36,19.40
2005,06,25,12,37,19.40
2005,06,25,12,38,19.20
2005,06,25,12,39,19.10
2005,06,25,12,40,19.10
2005,06,25,12,41,19.10
2005,06,25,12,42,19.20
2005,06,25,12,43,19.30
2005,06,25,12,44,19.30
2005,06,25,12,45,19.30
2005,06,25,12,46,19.30
2005,06,25,12,47,19.10
2005,06,25,12,48,18.90
2005,06,25,12,49,18.90
2005,06,25,12,50,18.80
2005,06,25,12,51,18.70
2005,06,25,12,52,18.70
2005,06,25,12,53,18.70
2005,06,25,12,54,18.80
2005,06,25,12,55,18.90
2005,06,25,12,56,19.10
2005,06,25,12,57,19.20
2005,06,25,12,58,19.50
2005,06,25,12,59,19.70
2005,06,25,13,00,19.90
2005,06,25,13,01,20.00
2005,06,25,13,02,20.10
2005,06,25,13,03,20.20
2005,06,25,13,04,20.20
2005,06,25,13,05,20.20
2005,06,25,13,06,20.20
2005,06,25,13,07,20.20
2005,06,25,13,08,20.20
2005,06,25,13,09,20.20
2005,06,25,13,10,20.20
2005,06,25,13,11,20.10
2005,06,25,13,12,20.00
2005,06,25,13,13,19.80
2005,06,25,13,14,19.70
2005,06,25,13,15,19.50
2005,06,25,13,16,19.30
2005,06,25,13,17,19.20
2005,06,25,13,18,19.10
2005,06,25,13,19,19.10
2005,06,25,13,20,19.10
2005,06,25,13,21,19.10
2005,06,25,13,22,19.00
2005,06,25,13,23,18.90
2005,06,25,13,24,18.90
2005,06,25,13,25,19.00
2005,06,25,13,26,19.10
2005,06,25,13,27,19.10
2005,06,25,13,28,19.10
2005,06,25,13,29,19.10
2005,06,25,13,30,19.10
2005,06,25,13,31,19.10
2005,06,25,13,32,19.10
2005,06,25,13,33,19.10
2005,06,25,13,34,19.10
2005,06,25,13,35,19.10
2005,06,25,13,36,19.10
2005,06,25,13,37,19.10
2005,06,25,13,38,19.10
2005,06,25,13,39,19.10
2005,06,25,13,40,19.10
2005,06,25,13,41,19.20
2005,06,25,13,42,19.20
2005,06,25,13,43,19.20
2005,06,25,13,44,19.20
2005,06,25,13,45,19.30
2005,06,25,13,46,19.20
2005,06,25,13,47,19.20
2005,06,25,13,48,19.50
2005,06,25,13,49,19.70
2005,06,25,13,50,19.70
2005,06,25,13,51,19.60
2005,06,25,13,52,19.60
2005,06,25,13,53,19.50
2005,06,25,13,54,19.40
2005,06,25,13,55,19.40
2005,06,25,13,56,19.50
2005,06,25,13,57,19.60
2005,06,25,13,58,19.70
2005,06,25,13,59,19.80
2005,06,25,14,00,19.80
2005,06,25,14,01,19.90
2005,06,25,14,02,19.80
2005,06,25,14,03,19.70
2005,06,25,14,04,19.70
2005,06,25,14,05,19.70
2005,06,25,14,06,19.70
2005,06,25,14,07,19.80
2005,06,25,14,08,19.90
2005,06,25,14,09,20.00
2005,06,25,14,10,20.20
2005,06,25,14,11,20.30
2005,06,25,14,12,20.40
2005,06,25,14,13,20.50
2005,06,25,14,14,20.50
2005,06,25,14,15,20.50
2005,06,25,14,16,20.60
2005,06,25,14,17,20.70
2005,06,25,14,18,20.80
2005,06,25,14,19,20.80
2005,06,25,14,20,20.80
2005,06,25,14,21,20.90
2005,06,25,14,22,21.00
2005,06,25,14,23,21.10
2005,06,25,14,24,21.30
2005,06,25,14,25,21.30
2005,06,25,14,26,21.30
2005,06,25,14,27,21.30
2005,06,25,14,28,21.30
2005,06,25,14,29,21.30
2005,06,25,14,30,21.20
2005,06,25,14,31,21.20
2005,06,25,14,32,21.20
2005,06,25,14,33,21.00
2005,06,25,14,34,21.00
2005,06,25,14,35,21.00
2005,06,25,14,36,21.00
2005,06,25,14,37,21.00
2005,06,25,14,38,20.80
2005,06,25,14,39,20.70
2005,06,25,14,40,20.50
2005,06,25,14,41,20.40
2005,06,25,14,42,20.30
2005,06,25,14,43,20.30
2005,06,25,14,44,20.50
2005,06,25,14,45,20.60
2005,06,25,14,46,20.60
2005,06,25,14,47,20.60
2005,06,25,14,48,20.60
2005,06,25,14,49,20.50
2005,06,25,14,50,20.40
2005,06,25,14,51,20.30
2005,06,25,14,52,20.20
2005,06,25,14,53,20.20
2005,06,25,14,54,20.20
2005,06,25,14,55,20.10
2005,06,25,14,56,19.90
2005,06,25,14,57,19.90
2005,06,25,14,58,19.70
2005,06,25,14,59,19.80
2005,06,25,15,00,19.90
2005,06,25,15,01,19.90
2005,06,25,15,02,20.10
2005,06,25,15,03,20.20
2005,06,25,15,04,20.40
2005,06,25,15,05,20.40
2005,06,25,15,06,20.30
2005,06,25,15,07,20.20
2005,06,25,15,08,20.10
2005,06,25,15,09,20.10
2005,06,25,15,10,20.20
2005,06,25,15,11,20.10
2005,06,25,15,12,20.10
2005,06,25,15,13,20.10
2005,06,25,15,14,20.20
2005,06,25,15,15,20.40
2005,06,25,15,16,20.50
2005,06,25,15,17,20.70
2005,06,25,15,18,20.70
2005,06,25,15,19,20.80
2005,06,25,15,20,21.00
2005,06,25,15,21,21.10
2005,06,25,15,22,21.10
2005,06,25,15,23,21.20
2005,06,25,15,24,21.30
2005,06,25,15,25,21.30
2005,06,25,15,26,21.30
2005,06,25,15,27,21.30
2005,06,25,15,28,21.20
2005,06,25,15,29,21.10
2005,06,25,15,30,21.10
2005,06,25,15,31,21.00
2005,06,25,15,32,21.00
2005,06,25,15,33,20.90
2005,06,25,15,34,20.90
2005,06,25,15,35,21.00
2005,06,25,15,36,21.00
2005,06,25,15,37,21.00
2005,06,25,15,38,21.00
2005,06,25,15,39,20.90
2005,06,25,15,40,20.70
2005,06,25,15,41,20.50
2005,06,25,15,42,20.40
2005,06,25,15,43,20.20
2005,06,25,15,44,20.00
2005,06,25,15,45,20.00
2005,06,25,15,46,20.20
2005,06,25,15,47,20.30
2005,06,25,15,48,20.50
2005,06,25,15,49,20.70
2005,06,25,15,50,20.80
2005,06,25,15,51,20.90
2005,06,25,15,52,20.80
2005,06,25,15,53,20.80
2005,06,25,15,54,20.80
2005,06,25,15,55,20.90
2005,06,25,15,56,20.90
2005,06,25,15,57,20.70
2005,06,25,15,58,20.50
2005,06,25,15,59,20.30
2005,06,25,16,00,20.20
2005,06,25,16,01,20.20
2005,06,25,16,02,20.20
2005,06,25,16,03,20.20
2005,06,25,16,04,20.40
2005,06,25,16,05,20.60
2005,06,25,16,06,20.70
2005,06,25,16,07,20.70
2005,06,25,16,08,20.70
2005,06,25,16,09,20.60
2005,06,25,16,10,20.40
2005,06,25,16,11,20.10
2005,06,25,16,12,19.90
2005,06,25,16,13,19.90
2005,06,25,16,14,19.90
2005,06,25,16,15,19.90
2005,06,25,16,16,19.90
2005,06,25,16,17,20.00
2005,06,25,16,18,20.10
2005,06,25,16,19,20.20
2005,06,25,16,20,20.20
2005,06,25,16,21,20.20
2005,06,25,16,22,20.20
2005,06,25,16,23,20.30
2005,06,25,16,24,20.40
2005,06,25,16,25,20.50
2005,06,25,16,26,20.50
2005,06,25,16,27,20.50
2005,06,25,16,28,20.40
2005,06,25,16,29,20.20
2005,06,25,16,30,20.30
2005,06,25,16,31,20.40
2005,06,25,16,32,20.40
2005,06,25,16,33,20.50
2005,06,25,16,34,20.60
2005,06,25,16,35,20.80
2005,06,25,16,36,20.80
2005,06,25,16,37,20.80
2005,06,25,16,38,20.70
2005,06,25,16,39,20.70
2005,06,25,16,40,20.80
2005,06,25,16,41,20.80
2005,06,25,16,42,20.90
2005,06,25,16,43,21.00
2005,06,25,16,44,21.10
2005,06,25,16,45,21.10
2005,06,25,16,46,21.00
2005,06,25,16,47,20.80
2005,06,25,16,48,20.60
2005,06,25,16,49,20.40
2005,06,25,16,50,20.30
2005,06,25,16,51,20.20
2005,06,25,16,52,20.20
2005,06,25,16,53,20.20
2005,06,25,16,54,20.30
2005,06,25,16,55,20.40
2005,06,25,16,56,20.50
2005,06,25,16,57,20.70
2005,06,25,16,58,20.80
2005,06,25,16,59,21.00
2005,06,25,17,00,21.00
2005,06,25,17,01,21.00
2005,06,25,17,02,21.10
2005,06,25,17,03,21.20
2005,06,25,17,04,21.30
2005,06,25,17,05,21.30
2005,06,25,17,06,21.10
2005,06,25,17,07,21.00
2005,06,25,17,08,21.00
2005,06,25,17,09,21.10
2005,06,25,17,10,21.20
2005,06,25,17,11,21.40
2005,06,25,17,12,21.50
2005,06,25,17,13,21.60
2005,06,25,17,14,21.60
2005,06,25,17,15,21.60
2005,06,25,17,16,21.60
2005,06,25,17,17,21.50
2005,06,25,17,18,21.30
2005,06,25,17,19,21.30